[[{"header":{"parameterUnit":"m.s-1","parameterCategory":1,"la1":30.2991,"la2":30.254,"lo1":-89.0895,"lo2":-89.0444,"dy":0.0017,"dx":0.0017,"nx":28,"ny":28,"refTime":"2024-06-20T09:00:00:Z","depth":0,"parameterNumber":2,"parameterNumberName":"U-component_of_WINDS"},"data":[0,0,0,0,0,0,0,0,0,0,0,0,0,0,0,0,0,0,0,0,0,0,0,0,0,0,0,0,0,0,0,0,0,0,0,0,0,0,0,0,0,0,0,0,0,0,0,0,0,0,0,0,0,0,0,0,0,0,-6.7061,-6.7061,0,-6.7057,-6.7057,-6.7057,-6.6913,-6.6909,-6.6906,-6.6902,-6.6897,-6.69,-6.6903,0,0,0,0,0,0,0,0,0,0,0,0,0,-6.6946,-6.6949,-6.7061,-6.7061,-6.7061,-6.7057,-6.7057,-6.7057,-6.6914,-6.6909,-6.6905,-6.69,-6.6896,-6.69,-6.6903,0,0,0,0,0,0,0,0,0,0,0,0,0,-6.6974,-6.695,-6.7061,-6.6989,-6.6983,-6.7057,-6.7057,-6.7057,-6.6915,-6.6909,-6.6903,-6.6898,-6.6894,-6.6899,-6.6904,-6.7046,0,0,-6.6919,-6.6921,0,0,0,0,0,0,0,0,-6.6973,-6.6979,-6.7,-6.6995,-6.6987,-6.698,-6.7014,-6.7053,-6.6916,-6.6941,-6.6902,-6.6896,-6.6929,-6.6931,-6.6942,-6.7046,-6.7046,-6.692,-6.6923,-6.6925,-6.6926,0,0,0,0,0,0,0,-6.6971,-6.6978,-6.706,-6.7001,-6.6993,-6.6957,-6.6955,-6.7021,-6.6966,-6.6938,-6.6928,-6.6929,-6.6924,-6.6938,-6.6941,-6.7046,-6.692,-6.6924,-6.6927,-6.6929,-6.7267,-6.7272,0,0,0,0,0,0,-6.6979,-6.6977,-6.706,-6.7059,-6.6966,-6.6964,-6.6961,-6.6988,-6.6965,-6.6956,-6.6934,-6.6922,-6.6932,-6.6935,-6.694,-6.7104,-6.6925,-6.6929,-6.6932,-6.7261,-6.7268,-6.7274,0,0,0,0,0,0,-6.6977,-6.6988,-6.706,-6.7016,-6.7022,-6.6972,-6.7003,-6.6991,-6.7004,-6.6962,-6.6951,-6.6957,-6.6927,-6.6933,-6.7021,-6.7102,-6.6932,-6.6936,-6.7254,-6.7263,-6.7271,-6.7435,0,0,0,0,0,0,-6.6975,-6.6988,-6.7041,-6.7018,-6.7025,-6.7141,-6.7008,-6.6995,-6.7013,-6.6998,-6.6981,-6.6973,-6.6924,-6.7014,-6.7026,-6.7106,-6.694,-6.7246,-6.7258,-6.7268,-6.7422,-6.7449,-6.7471,0,0,0,0,0,-6.6971,-6.7088,-6.7045,-6.7056,-6.7091,-6.7146,-6.715,-6.7091,-6.702,-6.7073,-6.7046,-6.6973,-6.7092,-6.7025,-6.7036,-6.7119,-6.7241,-6.7254,-6.7267,-6.7411,-6.7444,-6.7471,0,0,0,0,0,0,-6.7121,-6.7083,-6.7035,-6.7148,-6.7152,-6.7122,-6.7187,-6.7127,-6.7151,-6.7136,-6.7062,-6.7059,-6.7159,-6.7148,-6.7073,-6.7256,-6.7154,-6.717,-6.7259,-6.7289,-6.7313,-6.7313,-6.6944,0,0,0,0,0,-6.7168,-6.7216,-6.718,-6.7283,-6.7288,-6.7238,-6.726,-6.7214,-6.7215,-6.7215,-6.7195,-6.7198,-6.7236,-6.7262,-6.7295,-6.7421,-6.7415,-6.7484,-6.7509,-6.7529,-6.7543,-6.7609,-6.7639,-6.7319,-6.7318,-6.7318,0,0,-6.7263,-6.7249,-6.7284,-6.7313,-6.731,-6.7362,-6.724,-6.7299,-6.7337,-6.7224,-6.7305,-6.7292,-6.729,-6.7398,-6.7444,-6.7392,-6.7631,-6.7546,-6.7563,-6.7566,-6.7626,-6.7656,-6.7683,-6.7328,-6.7326,-6.7325,0,0,-6.7464,-6.7459,-6.7543,-6.7544,-6.7542,-6.7508,-6.7529,-6.7509,-6.7495,-6.7576,-6.7493,-6.7537,-6.7604,-6.7606,-6.7616,-6.7821,-6.7755,-6.7834,-6.7961,-6.8026,-6.8051,-6.8073,-6.8145,-6.8172,-6.7849,-6.785,-6.785,0,-6.7583,-6.7657,-6.7594,-6.766,-6.7675,-6.7577,-6.7662,-6.7666,-6.7675,-6.7688,-6.7629,-6.7712,-6.7704,-6.7811,-6.7861,-6.7873,-6.7894,-6.7834,-6.8053,-6.8074,-6.8094,-6.8161,-6.8189,-6.7859,-6.7858,-6.7857,-6.7856,0,-6.7804,-6.7857,-6.7926,-6.7938,-6.7961,-6.8036,-6.7984,-6.8016,-6.7969,-6.7942,-6.8026,-6.8014,-6.8043,-6.8065,-6.802,-6.8166,-6.8134,-6.8066,-6.7961,-6.8135,-6.8197,-6.8223,-6.7873,-6.7869,-6.7866,-6.7864,0,0,-6.8095,-6.8073,-6.8099,-6.8104,-6.8096,-6.8135,-6.8207,-6.8235,-6.8263,-6.8274,-6.8331,-6.8392,-6.8329,-6.834,-6.8295,-6.8353,-6.8515,-6.8277,-6.8276,-6.832,-6.8674,-6.8724,-6.8755,-6.8472,-6.8477,-6.848,-6.8674,0,-6.8288,-6.8408,-6.8355,-6.848,-6.8529,-6.8438,-6.85,-6.8502,-6.8479,-6.8517,-6.8492,-6.8535,-6.8449,-6.8456,-6.8509,-6.8484,-6.8584,-6.8469,-6.8523,-6.8526,-6.8524,-6.8788,-6.884,-6.9023,-6.8698,-6.8702,-6.8705,0,-6.8528,-6.8549,-6.8681,-6.8665,-6.8683,-6.874,-6.8762,-6.8799,-6.88,-6.878,-6.8794,-6.8736,-6.8805,-6.8704,-6.8797,-6.872,-6.874,-6.8731,-6.8737,-6.8738,-6.8624,-6.8794,-6.908,-6.9107,-6.8743,-6.874,-6.8737,0,-6.8726,-6.8788,-6.8874,-6.8881,-6.8865,-6.8907,-6.8902,-6.8898,-6.8918,-6.8938,-6.8951,-6.8979,-6.8994,-6.9017,-6.8968,-6.8899,-6.9069,-6.8963,-6.9053,-6.9054,-6.909,-6.9088,-6.9382,-6.9107,-6.9107,-6.9106,-6.9106,0,-6.8946,-6.9029,-6.8963,-6.9016,-6.9107,-6.9045,-6.9137,-6.9122,-6.9119,-6.9167,-6.9091,-6.9138,-6.9072,-6.9113,-6.9076,-6.9158,-6.9166,-6.9151,-6.914,-6.9157,-6.9158,-6.9166,-6.9152,-6.9113,-6.9112,-6.911,-6.9109,0,-6.9181,-6.914,-6.9228,-6.9206,-6.9203,-6.9271,-6.9252,-6.93,-6.9273,-6.9336,-6.9347,-6.9305,-6.9349,-6.9303,-6.9344,-6.9319,-6.943,-6.9402,-6.943,-6.9421,-6.9513,-6.9504,-6.982,-6.9858,-6.9561,-6.9564,-6.9567,0,-6.9322,-6.9384,-6.937,-6.9397,-6.9397,-6.9442,-6.9464,-6.9406,-6.9432,-6.9438,-6.9486,-6.9524,-6.9551,-6.9626,-6.9598,-6.963,-6.96,-6.9709,-6.9604,-6.9619,-6.9599,-6.9595,-6.9601,-6.9729,-6.9732,-6.9735,-6.9738,0,-6.9577,-6.9554,-6.9588,-6.9616,-6.9644,-6.9663,-6.9675,-6.9702,-6.9643,-6.9675,-6.972,-6.9741,-6.9784,-6.9822,-6.9846,-6.9841,-6.978,-6.9772,-6.9793,-6.981,-6.9823,-6.9816,-6.9486,-6.9764,-6.9761,-6.9759,-6.9758,-6.9757,-6.9767,-6.9818,-6.9817,-6.9857,-6.9862,-6.9876,-6.992,-6.99,-6.9936,-6.9966,-6.9931,-6.9986,-6.9986,-7.0012,-7.0014,-7.0056,-7.001,-7.0042,-7.005,-7.0058,-7.0071,-6.9819,-7.006,-7.006,-7.0059,-7.0058,-7.0058,0,-7.0016,-7.0012,-7.005,-7.0071,-7.0104,-7.0045,-7.0057,-7.0087,-7.0137,-7.0143,-7.0172,-7.0223,-7.0261,-7.0238,-7.027,-7.0308,-7.0281,-7.0318,-7.0314,-7.0313,-7.0111,-7.0088,-7.034,-7.034,-7.034,-7.034,-7.034,-7.034,-7.015,-7.0233,-7.0211,-7.0295,-7.0289,-7.0343,-7.0355,-7.0368,-7.0372,-7.0433,-7.0465,-7.045,-7.0444,-7.0476,-7.0508,-7.05,-7.0515,-7.0562,-7.0544,-7.0355,-7.0328,-7.0301,-7.0279,-7.0566,-7.0567,-7.0742,-7.0744,-7.0745]},{"header":{"parameterUnit":"m.s-1","parameterCategory":1,"la1":30.2991,"la2":30.254,"lo1":-89.0895,"lo2":-89.0444,"dy":0.0017,"dx":0.0017,"nx":28,"ny":28,"refTime":"2024-06-20T09:00:00:Z","depth":0,"parameterNumber":3,"parameterNumberName":"V-component_of_WINDS"},"data":[0,0,0,0,0,0,0,0,0,0,0,0,0,0,0,0,0,0,0,0,0,0,0,0,0,0,0,0,0,0,0,0,0,0,0,0,0,0,0,0,0,0,0,0,0,0,0,0,0,0,0,0,0,0,0,0,0,0,0.3698,0.3698,0,0.3647,0.3647,0.3646,0.3629,0.3629,0.363,0.363,0.3573,0.3572,0.357,0,0,0,0,0,0,0,0,0,0,0,0,0,0.378,0.3778,0.3698,0.3698,0.3697,0.3647,0.3647,0.3646,0.3629,0.3629,0.363,0.363,0.3574,0.3572,0.357,0,0,0,0,0,0,0,0,0,0,0,0,0,0.3738,0.3778,0.3699,0.3683,0.3681,0.3647,0.3647,0.3646,0.3629,0.3629,0.363,0.363,0.3575,0.3572,0.357,0.3547,0,0,0.3562,0.3561,0,0,0,0,0,0,0,0,0.374,0.3735,0.3686,0.3684,0.3682,0.3645,0.3655,0.3612,0.3629,0.3649,0.363,0.363,0.3597,0.3592,0.3582,0.3544,0.3542,0.3562,0.356,0.3559,0.3558,0,0,0,0,0,0,0,0.3743,0.3737,0.3678,0.3685,0.3683,0.3678,0.3672,0.3647,0.3621,0.3647,0.3646,0.364,0.3596,0.3584,0.358,0.3541,0.3562,0.3559,0.3558,0.3557,0.3484,0.3483,0,0,0,0,0,0,0.3749,0.374,0.368,0.3676,0.3713,0.3676,0.367,0.3656,0.3621,0.3617,0.364,0.3639,0.3589,0.3583,0.3578,0.355,0.3559,0.3556,0.3555,0.3484,0.3484,0.3483,0,0,0,0,0,0,0.3751,0.3744,0.3682,0.3708,0.3699,0.3674,0.3659,0.3655,0.3644,0.3616,0.3611,0.3633,0.3589,0.3582,0.3555,0.3548,0.3555,0.3553,0.3485,0.3484,0.3483,0.3493,0,0,0,0,0,0,0.3753,0.3745,0.3736,0.3708,0.3698,0.366,0.3659,0.3654,0.364,0.3639,0.3608,0.3604,0.3588,0.3559,0.3553,0.3545,0.3551,0.3485,0.3484,0.3484,0.3494,0.3493,0.3493,0,0,0,0,0,0.3756,0.374,0.3736,0.3729,0.3687,0.366,0.3654,0.3638,0.3639,0.363,0.3613,0.3605,0.355,0.3557,0.3549,0.354,0.3485,0.3484,0.3484,0.3494,0.3493,0.3493,0,0,0,0,0,0,0.3766,0.3735,0.3731,0.3704,0.3685,0.3657,0.3645,0.3638,0.3616,0.3616,0.3596,0.3589,0.3565,0.355,0.3558,0.3517,0.3517,0.3515,0.3528,0.3527,0.3527,0.353,0.3549,0,0,0,0,0,0.3765,0.3746,0.3721,0.37,0.3691,0.367,0.3657,0.3647,0.3625,0.3617,0.3597,0.3576,0.3554,0.354,0.3518,0.3492,0.3485,0.3482,0.3482,0.3482,0.3479,0.3466,0.3464,0.348,0.348,0.348,0,0,0.3762,0.3744,0.3733,0.3701,0.3685,0.3666,0.3663,0.3642,0.3627,0.3613,0.3587,0.3573,0.3547,0.3522,0.3509,0.3508,0.3474,0.3481,0.3481,0.3478,0.3465,0.3463,0.3462,0.348,0.348,0.348,0,0,0.3748,0.3732,0.3714,0.3699,0.3675,0.3662,0.3658,0.3631,0.3621,0.3596,0.3585,0.3568,0.353,0.3513,0.35,0.3483,0.3475,0.3476,0.3474,0.3461,0.346,0.3459,0.3453,0.3451,0.3474,0.3474,0.3474,0,0.3748,0.3719,0.3705,0.3686,0.3673,0.3661,0.3643,0.3628,0.3598,0.3589,0.3589,0.3544,0.3526,0.3496,0.3493,0.3482,0.3477,0.3479,0.3461,0.346,0.3459,0.3453,0.3451,0.3475,0.3475,0.3475,0.3475,0,0.3721,0.3701,0.3689,0.3663,0.3648,0.3629,0.3612,0.3599,0.3591,0.3578,0.3553,0.3531,0.3506,0.3498,0.3489,0.3468,0.3469,0.3465,0.3465,0.3458,0.3452,0.345,0.3475,0.3475,0.3475,0.3475,0,0,0.3708,0.3677,0.3673,0.3661,0.3636,0.362,0.3601,0.3579,0.3568,0.3548,0.3532,0.3502,0.35,0.3485,0.3474,0.3463,0.3452,0.3461,0.346,0.346,0.3428,0.3431,0.3429,0.3447,0.3446,0.3446,0.3431,0,0.3691,0.3658,0.3646,0.3619,0.3601,0.3591,0.3575,0.3558,0.3545,0.3528,0.3514,0.3494,0.3492,0.3483,0.3472,0.3456,0.3445,0.3456,0.3431,0.343,0.3437,0.3426,0.3428,0.3414,0.3428,0.3428,0.3428,0,0.3666,0.3648,0.362,0.3599,0.3591,0.3577,0.3556,0.354,0.352,0.3512,0.3497,0.3487,0.3467,0.347,0.3442,0.345,0.3439,0.343,0.3429,0.3425,0.3428,0.3422,0.3409,0.3407,0.3424,0.3424,0.3425,0,0.366,0.363,0.3609,0.36,0.3574,0.3565,0.3554,0.3535,0.3522,0.3504,0.3496,0.3475,0.3463,0.3447,0.3432,0.3435,0.3406,0.3407,0.3399,0.3399,0.3392,0.3392,0.3378,0.3386,0.3386,0.3386,0.3386,0,0.3642,0.3625,0.3607,0.3594,0.3575,0.3562,0.3543,0.3531,0.3515,0.35,0.349,0.3475,0.3457,0.344,0.3429,0.3408,0.3402,0.3395,0.3392,0.3396,0.3397,0.3388,0.3388,0.3385,0.3385,0.3385,0.3386,0,0.3632,0.3619,0.3596,0.3575,0.357,0.3557,0.3539,0.3526,0.3515,0.3495,0.349,0.3471,0.3452,0.3436,0.3409,0.3402,0.338,0.3376,0.3387,0.3385,0.3378,0.3379,0.3356,0.3353,0.3364,0.3364,0.3364,0,0.3621,0.3608,0.3587,0.3577,0.3566,0.355,0.3538,0.3525,0.3513,0.3492,0.3482,0.3462,0.3445,0.3414,0.3397,0.3377,0.3373,0.3367,0.337,0.3375,0.3373,0.3374,0.3373,0.3366,0.3366,0.3366,0.3366,0,0.3602,0.3597,0.3582,0.3564,0.3551,0.3537,0.3521,0.3514,0.3498,0.3485,0.3466,0.3453,0.3428,0.3408,0.3387,0.3375,0.3368,0.3366,0.3363,0.3366,0.3373,0.3369,0.3386,0.3366,0.3366,0.3366,0.3366,0.3366,0.3591,0.358,0.3564,0.3548,0.3536,0.3523,0.351,0.3499,0.3483,0.3462,0.3456,0.3436,0.3418,0.339,0.3378,0.3362,0.3361,0.3357,0.3356,0.3355,0.3356,0.3376,0.3358,0.3358,0.3358,0.3358,0.3358,0,0.3573,0.3563,0.3548,0.3529,0.3516,0.3513,0.3497,0.3486,0.3469,0.3454,0.3439,0.3418,0.3399,0.3383,0.3364,0.3354,0.3351,0.335,0.335,0.3347,0.3357,0.3362,0.3353,0.3353,0.3353,0.3353,0.3353,0.3353,0.3562,0.3543,0.3537,0.3513,0.3503,0.3485,0.3476,0.3464,0.3452,0.343,0.3415,0.3405,0.339,0.337,0.3353,0.3349,0.3342,0.3342,0.3337,0.3346,0.3346,0.3347,0.3351,0.3341,0.3341,0.3328,0.3328,0.3328]}]]